| time (UTC) | temp F | wind direction | speed MPH | gust MPH | rain 1hr in | rain 24hr in | rain mn in | humidity % | barometer mb |
| 20260506041531 | 46 | 342 | 0.0 | 2.0 | 0.00 | 0.19 | 0.00 | 83 | 1011.0 |
| 20260506040027 | 47 | 352 | 1.0 | 4.0 | 0.00 | 0.19 | 0.00 | 82 | 1011.1 |
| 20260506034534 | 47 | 359 | 1.0 | 3.0 | 0.00 | 0.19 | 0.00 | 81 | 1011.2 |
| 20260506033040 | 48 | 347 | 1.0 | 4.0 | 0.00 | 0.19 | 0.00 | 80 | 1011.2 |
| 20260506031558 | 47 | 273 | 1.0 | 4.0 | 0.00 | 0.19 | 0.00 | 83 | 1011.3 |
| 20260506030032 | 46 | 312 | 1.0 | 2.0 | 0.00 | 0.19 | 0.00 | 85 | 1011.3 |
| 20260506024554 | 46 | 23 | 1.0 | 4.0 | 0.00 | 0.19 | 0.00 | 86 | 1011.4 |
| 20260506023053 | 47 | 289 | 0.0 | 2.0 | 0.00 | 0.19 | 0.00 | 84 | 1011.2 |
| 20260506021608 | 48 | 306 | 0.0 | 4.0 | 0.00 | 0.19 | 0.00 | 83 | 1011.1 |
| 20260506020048 | 48 | 306 | 0.0 | 3.0 | 0.00 | 0.19 | 0.00 | 83 | 1011.1 |
| 20260506014616 | 46 | 261 | 2.0 | 7.0 | 0.00 | 0.19 | 0.00 | 87 | 1011.2 |
| 20260506013119 | 46 | 297 | 0.0 | 3.0 | 0.00 | 0.19 | 0.00 | 88 | 1011.2 |
| 20260506011633 | 46 | 29 | 0.0 | 2.0 | 0.00 | 0.19 | 0.00 | 88 | 1011.1 |
| 20260506010113 | 46 | 283 | 0.0 | 2.0 | 0.00 | 0.19 | 0.00 | 89 | 1011.3 |
| 20260506004635 | 46 | 283 | 1.0 | 6.0 | 0.00 | 0.19 | 0.00 | 89 | 1011.4 |
| 20260506003145 | 46 | 262 | 1.0 | 4.0 | 0.00 | 0.19 | 0.00 | 89 | 1011.7 |
| 20260506001651 | 47 | 279 | 1.0 | 2.0 | 0.00 | 0.19 | 0.00 | 89 | 1012.0 |
| 20260505231527 | 51 | 210 | 1.0 | 4.0 | 0.00 | 0.19 | 0.00 | 80 | 1012.1 |
| 20260505230031 | 52 | 266 | 0.0 | 2.0 | 0.00 | 0.19 | 0.00 | 78 | 1012.0 |
| 20260505224539 | 53 | 306 | 3.0 | 11.0 | 0.00 | 0.19 | 0.00 | 77 | 1012.0 |
| 20260505223104 | 53 | 284 | 8.0 | 17.0 | 0.00 | 0.19 | 0.00 | 77 | 1012.0 |
| 20260505221626 | 53 | 280 | 9.0 | 19.0 | 0.00 | 0.19 | 0.00 | 76 | 1011.6 |
| 20260505220010 | 53 | 287 | 11.0 | 19.0 | 0.00 | 0.19 | 0.19 | 77 | 1011.9 |
| 20260505214651 | 53 | 286 | 10.0 | 14.0 | 0.00 | 0.19 | 0.19 | 78 | 1012.0 |
| 20260505213120 | 51 | 262 | 4.0 | 10.0 | 0.00 | 0.19 | 0.19 | 87 | 1012.1 |
| 20260505211628 | 51 | 242 | 1.0 | 6.0 | 0.00 | 0.19 | 0.19 | 87 | 1012.2 |
| 20260505210016 | 52 | 274 | 2.0 | 9.0 | 0.00 | 0.19 | 0.19 | 88 | 1012.0 |
| 20260505204633 | 51 | 279 | 2.0 | 6.0 | 0.00 | 0.19 | 0.19 | 89 | 1012.0 |
| 20260505203044 | 52 | 247 | 2.0 | 7.0 | 0.00 | 0.19 | 0.19 | 89 | 1011.8 |
| 20260505201510 | 52 | 268 | 2.0 | 7.0 | 0.00 | 0.19 | 0.19 | 91 | 1011.6 |
| 20260505200134 | 51 | 244 | 0.0 | 3.0 | 0.01 | 0.19 | 0.19 | 91 | 1011.5 |
| 20260505194541 | 52 | 260 | 0.0 | 4.0 | 0.01 | 0.19 | 0.19 | 89 | 1011.0 |
| 20260505193035 | 53 | 274 | 3.0 | 5.0 | 0.01 | 0.19 | 0.19 | 88 | 1010.7 |
| 20260505191506 | 54 | 125 | 0.0 | 4.0 | 0.02 | 0.19 | 0.19 | 86 | 1010.6 |
| 20260505190118 | 54 | 233 | 3.0 | 8.0 | 0.01 | 0.18 | 0.18 | 85 | 1011.1 |
| 20260505184616 | 53 | 17 | 3.0 | 8.0 | 0.02 | 0.18 | 0.18 | 84 | 1010.2 |
| 20260505183015 | 53 | 300 | 2.0 | 3.0 | 0.04 | 0.18 | 0.18 | 87 | 1010.6 |
| 20260505181626 | 54 | 352 | 4.0 | 7.0 | 0.03 | 0.17 | 0.17 | 84 | 1010.7 |
| 20260505180024 | 54 | 23 | 0.0 | 5.0 | 0.03 | 0.17 | 0.17 | 82 | 1010.6 |
| 20260505174701 | 55 | 352 | 3.0 | 10.0 | 0.02 | 0.31 | 0.17 | 79 | 1010.2 |
| 20260505173159 | 57 | 318 | 6.0 | 16.0 | 0.02 | 0.31 | 0.16 | 72 | 1010.5 |
| 20260505171527 | 57 | 323 | 8.0 | 11.0 | 0.00 | 0.28 | 0.14 | 72 | 1010.1 |
| 20260505170042 | 57 | 347 | 7.0 | 11.0 | 0.00 | 0.28 | 0.14 | 71 | 1009.7 |
| 20260505164658 | 57 | 299 | 9.0 | 16.0 | 0.00 | 0.30 | 0.14 | 71 | 1009.9 |
| 20260505163016 | 56 | 291 | 6.0 | 19.0 | 0.00 | 0.30 | 0.14 | 73 | 1010.1 |
| 20260505161652 | 57 | 307 | 12.0 | 19.0 | 0.00 | 0.30 | 0.14 | 73 | 1010.2 |
| 20260505153030 | 59 | 359 | 1.0 | 9.0 | 0.02 | 0.30 | 0.14 | 76 | 1009.7 |
| 20260505150117 | 57 | 36 | 3.0 | 5.0 | 0.04 | 0.30 | 0.14 | 84 | 1009.7 |
| 20260505124649 | 59 | 133 | 3.0 | 6.0 | 0.01 | 0.28 | 0.10 | 84 | 1010.6 |
| 20260505123158 | 59 | 40 | 3.0 | 9.0 | 0.02 | 0.28 | 0.10 | 86 | 1010.6 |
| 20260505121553 | 58 | 31 | 3.0 | 9.0 | 0.05 | 0.28 | 0.10 | 87 | 1010.4 |
| 20260505114613 | 58 | 44 | 1.0 | 3.0 | 0.09 | 0.28 | 0.09 | 88 | 1010.9 |
| 20260505113008 | 58 | 62 | 0.0 | 4.0 | 0.09 | 0.28 | 0.09 | 86 | 1010.8 |
| 20260505111600 | 59 | 36 | 1.0 | 8.0 | 0.06 | 0.24 | 0.06 | 82 | 1010.7 |
| 20260505101522 | 62 | 56 | 8.0 | 11.0 | 0.00 | 0.23 | 0.00 | 74 | 1010.6 |
| 20260505100004 | 62 | 114 | 5.0 | 11.0 | 0.00 | 0.24 | 0.00 | 76 | 1010.7 |
| 20260505094611 | 61 | 58 | 7.0 | 13.0 | 0.00 | 0.24 | 0.00 | 75 | 1010.9 |
| 20260505093039 | 61 | 133 | 5.0 | 9.0 | 0.00 | 0.24 | 0.00 | 79 | 1011.0 |
| 20260505091655 | 62 | 120 | 6.0 | 11.0 | 0.00 | 0.24 | 0.00 | 75 | 1010.9 |
| 20260505090049 | 62 | 63 | 3.0 | 9.0 | 0.00 | 0.24 | 0.00 | 72 | 1010.8 |
| 20260505083120 | 62 | 80 | 4.0 | 6.0 | 0.00 | 0.24 | 0.00 | 69 | 1010.8 |
| 20260505081542 | 61 | 154 | 0.0 | 3.0 | 0.00 | 0.24 | 0.00 | 70 | 1010.9 |
| 20260505080138 | 60 | 145 | 0.0 | 4.0 | 0.00 | 0.24 | 0.00 | 73 | 1010.9 |
| 20260505073200 | 60 | 285 | 0.0 | 2.0 | 0.00 | 0.24 | 0.00 | 74 | 1011.0 |
| 20260505071644 | 57 | 244 | 0.0 | 4.0 | 0.00 | 0.24 | 0.00 | 79 | 1011.1 |
| 20260505070101 | 56 | 224 | 1.0 | 4.0 | 0.00 | 0.24 | 0.00 | 80 | 1010.9 |
| 20260505064514 | 54 | 237 | 2.0 | 7.0 | 0.00 | 0.24 | 0.00 | 82 | 1011.0 |
| 20260505063017 | 53 | 239 | 3.0 | 7.0 | 0.00 | 0.24 | 0.00 | 85 | 1010.9 |
| 20260505061518 | 51 | 165 | 0.0 | 3.0 | 0.00 | 0.24 | 0.00 | 94 | 1010.9 |
| 20260505060122 | 49 | 275 | 1.0 | 2.0 | 0.00 | 0.24 | 0.00 | 93 | 1010.9 |
| 20260505054539 | 49 | 264 | 3.0 | 4.0 | 0.00 | 0.24 | 0.00 | 94 | 1011.0 |
| 20260505051637 | 47 | 264 | 0.0 | 4.0 | 0.00 | 0.24 | 0.00 | 94 | 1010.9 |
| 20260505050126 | 47 | 277 | 1.0 | 2.0 | 0.00 | 0.24 | 0.00 | 93 | 1010.9 |